sat.trackr.live / text

‹ back to catalog

WNISAT 1R

NORAD 42835 · 2017-042L

PAYLOAD ACTIVE UNKNOWN

§ Identity

Operator
Country
JPN
Launch date
2017-07-14
Launch site
TYMSC
Launch vehicle
Mass (kg)
RCS (m²)

External: N2YO · Heavens-Above · Gunter

§ Orbital elements

Epoch: 2026-09-10T04:05:52.920096Z

Period
95.87 min
Inclination
97.4926°
Eccentricity
0.0008053
Mean motion
15.02070306 rev/d
Perigee alt
554.9 km
Apogee alt
566.1 km
Semi-major
6,938.7 km
B*
1.7272e-4
RAAN
46.2735°
Arg perigee
204.2415°
Mean anomaly
155.8433°
Rev number
49,926

§ Raw data

WNISAT 1R1 42835U 17042L   26253.17075139  .00002210  00000+0  17272-3 0  99932 42835  97.4926  46.2735 0008053 204.2415 155.8433 15.02070306499265

JSON: /api/v1/satellites/42835 · /tle

For live sub-satellite position, see the globe view (requires WebGL).

§ Visibility from observer

Set your observer location to see the next 7 days of passes ≥ 10°. The values pass through the URL so the page stays shareable.

No JS? Fill the form by hand. The geolocation button needs JavaScript.

§ Radio — SatNOGS DB

ModeDescriptionDownlinkUplink
FM Downlink 401.800 MHz

1 transmitter · refreshed weekly from db.satnogs.org